Preview of NWS' New Version of Forecast
This preview is not operational and should not be used for support decisions.
Latest weather observations around

Pine Bluff, Grider Field Airport (KPBF)

Using English Units (Switch to International System of Units)
Date/ Time (CDT) Wind (mph) Vis. (mi) Weather Sky Cond. Temp (°F) Rel. Humidity Wind Chill (°F) Heat Index (°F) Pressure Precip. (in)
Air Dwpt 6 hour Altimeter (inHg) Sea level (inHg) 1 hr 3 hr 6 hr
Max Min
Apr 22 23:53 W 9 10 Cloudy SCT034 OVC046 55 51     86%     29.91 29.91 0    
Apr 22 22:02 WNW 9 10 Cloudy SCT020 OVC055 58 52     81%     29.92        
Apr 22 21:53 W 10 10 Cloudy BKN020 OVC060 58 52     81%     29.92 29.91      
Apr 22 20:53 NW 15 10 Cloudy OVC023 60 52     75%     29.91 29.9      
Apr 22 20:43 WNW 11 10 Cloudy BKN023 OVC033 60 53     78%     29.9        
Apr 22 19:53 WNW 14 10 Cloudy FEW028 BKN034 OVC075 62 54     75%     29.88 29.88      
Apr 22 18:53 WNW 10 10 Mostly Cloudy FEW030 SCT060 BKN075 65 54     68%     29.86 29.85      
Apr 22 17:53 WNW 9 10 Cloudy SCT028 OVC080 67 56     68%     29.85 29.84      
Apr 22 17:07 WNW 9 10 Cloudy BKN030 BKN039 OVC080 67 56     68%     29.84        
Apr 22 16:53 NW 9 10 Cloudy BKN029 BKN037 OVC080 67 56     68%     29.84 29.83      
Apr 22 16:18 NW 9 10 Partly Cloudy FEW029 SCT035 67 56     68%     29.85        
Apr 22 16:10 NW 10 10 Mostly Cloudy BKN029 BKN039 67 57     71%     29.85        
Apr 22 15:53 NW 8 10 Mostly Cloudy SCT027 BKN037 67 58     73%     29.85 29.84      
Apr 22 14:53 NNW 10 10 Mostly Cloudy SCT023 BKN028 BKN032 65 58     78%     29.88 29.88      
Apr 22 14:37 WNW 13 10 Mostly Cloudy FEW018 SCT028 BKN075 67 59     76%     29.89        
Apr 22 13:53 NNW 13 10 Cloudy SCT019 BKN026 OVC039 66 59     78%     29.89 29.88      
Apr 22 13:42 WNW 14 10 Cloudy SCT019 BKN024 OVC039 65 59     81%     29.89        
Apr 22 13:01 W 7 10 Cloudy FEW015 SCT025 OVC060 66 59     78%     29.89        
Apr 22 12:53 W 9 10 Cloudy SCT015 BKN025 OVC055 65 60     84%     29.89 29.89     0
Apr 22 12:33 S 7 10 Cloudy FEW011 BKN019 OVC029 64 60     87%     29.9        
Apr 22 11:53 SSW 5 10 Cloudy BKN010 BKN025 OVC044 65 61     87%     29.9 29.9 0    
Apr 22 11:41 Calm 10 Cloudy SCT011 BKN025 OVC044 63 60     90%     29.91   0    
Apr 22 11:34 W 5 8 Light Rain BKN011 BKN019 OVC042 62 59     90%     29.91   0    
Apr 22 11:27 W 5 9 Light Rain SCT012 BKN017 OVC025 63 59     87%     29.91   0    
Apr 22 11:20 SW 3 8 Light Rain BKN012 BKN017 OVC025 63 59     87%     29.92   0    
Apr 22 11:00 SSW 6 10 Cloudy SCT014 BKN021 OVC032 63 58     84%     29.92        
Apr 22 10:53 SW 6 10 Cloudy SCT018 OVC030 63 58     84%     29.92 29.91      
Apr 22 10:28 WSW 3 10 Cloudy SCT022 OVC030 63 58     84%     29.92        
Apr 22 10:11 SW 5 10 Cloudy FEW009 BKN022 OVC038 63 58     84%     29.92        
Apr 22 09:53 SSW 5 10 Mostly Cloudy FEW009 BKN038 62 58     86%     29.92 29.91      
Apr 22 09:43 SSW 6 10 Mostly Cloudy FEW008 BKN037 62 58     86%     29.92        
Apr 22 08:53 Calm 10 Cloudy BKN055 OVC065 61 59     93%     29.93 29.92      
Apr 22 08:34 W 3 10 Cloudy SCT024 BKN060 OVC075 61 59     93%     29.93        
Apr 22 07:53 W 5 10 Cloudy OVC019 60 60     100%     29.93 29.93      
Apr 22 07:43 W 6 10 Cloudy OVC017 60 60     100%     29.93        
Apr 22 06:53 W 6 10 Cloudy OVC010 60 60     100%     29.93 29.92 0   1
Apr 22 06:51 W 6 10 Cloudy OVC010 61 61     100%     29.93   0    
Apr 22 06:07 3 10 Mostly Cloudy BKN008 BKN100 60 60     100%     29.91        
Apr 22 05:53 SE 10 10 Mostly Cloudy FEW008 BKN100 59 59     100%     29.9 29.89 0    
Apr 22 05:51 SE 11 10 Mostly Cloudy FEW008 BKN095 BKN110 59 59     100%     29.89   0    
Apr 22 04:53 ESE 17 7 Light Rain OVC080 59 59     100%     29.9 29.89 0    
Apr 22 02:53 NE 10 3 Rain and Fog/Mist FEW050 OVC080 58 58     100%     29.99 29.98 0    
Apr 22 02:10 NNE 11 3 Rain and Fog/Mist FEW004 BKN046 OVC065 58 58     100%     30.02   0    
Apr 22 02:03 NNE 8 3 Rain and Fog/Mist FEW030 BKN040 OVC060 58 58     100%     30.03   0    
Apr 22 01:53 N 9 2.5 Heavy Rain and Fog/Mist FEW004 BKN033 OVC060 58 58     100%     30.04 30.03 1    
Apr 22 01:50 N 8 2 Heavy Rain and Fog/Mist FEW004 BKN033 OVC041 57 57     100%     30.04   1    
Apr 22 01:38 NNW 11 1.75 Heavy Rain and Fog/Mist FEW004 BKN026 OVC042 58 58     100%     30.05   0    
Apr 22 01:31 NNW 10 1.75 Heavy Rain and Fog/Mist FEW004 BKN030 OVC036 58 58     100%     30.06   0    
Apr 22 01:23 NNW 10 2 Heavy Rain and Fog/Mist FEW004 BKN030 OVC060 58 58     100%     30.06   0    
Apr 22 01:14 NW 16 2 Heavy Rain and Fog/Mist BKN039 BKN048 OVC060 58 58     100%     30.05   0    
Apr 22 00:53 NNW 14 3 Rain and Fog/Mist BKN046 OVC055 58 58     100%     30.04 30.04 0   1
Apr 22 00:37 NNW 11 2 Heavy Rain and Fog/Mist SCT037 OVC045 58 58     100%     30.05   0    
Apr 21 23:53 WNW 11 4 Rain and Fog/Mist FEW036 BKN049 OVC070 58 56     93%     30.05 30.04 0    
Apr 21 22:53 NW 3 10 Light Rain SCT075 OVC095 62 56     80%     30.01 30 0    
Apr 21 21:53 Calm 10 Light Rain OVC100 63 53     70%     30 30 0 0  
Apr 21 20:53 E 8 10 Cloudy OVC110 64 52     65%     29.99 29.98      
Apr 21 19:53 ESE 11 10 Clear CLR 64 51     63%     30 29.99      
Apr 21 18:53 E 3 10 Clear CLR 66 53     63%     30.04 30.03      
Apr 21 17:53 Calm 10 Clear CLR 69 49     49%     30.06 30.06      
Apr 21 16:53 SSE 9 10 Mostly Clear FEW110 70 48     46%     30.04 30.04      
Apr 21 15:53 SE 7 10 Clear CLR 71 48     44%   70 30.05 30.05      
Apr 21 14:53 SE 11 10 Clear CLR 71 48     44%   70 30.07 30.07      
Apr 21 13:53 SSE 16 10 Clear CLR 71 47     42%   70 30.08 30.08      
Apr 21 12:53 SSE 15 10 Clear CLR 71 47     42%   70 30.11 30.11      
Apr 21 11:53 SE 11 10 Clear CLR 68 46     45%     30.16 30.15      
Apr 21 10:53 SSE 9 10 Mostly Cloudy FEW055 SCT075 BKN095 63 45     52%     30.18 30.18      
Apr 21 09:53 ESE 13 10 Clear CLR 63 45     52%     30.18 30.18      
Apr 21 08:53 E 8 10 Clear CLR 58 45     62%     30.2 30.19      
Apr 21 07:53 NNE 3 10 Clear CLR 51 47     86%     30.21 30.2      
Apr 21 06:53 Calm 10 Clear CLR 49 44     83%     30.19 30.18      
Apr 21 05:53 ENE 3 10 Clear CLR 46 43     89% 45   30.16 30.16      
Apr 21 04:53 Calm 10 Clear CLR 46 43     89%     30.18 30.18      
Apr 21 03:53 Calm 10 Clear CLR 50 43     77%     30.18 30.17      
Apr 21 02:53 Calm 10 Clear CLR 46 43     89%     30.17 30.17      
Apr 21 01:53 Calm 10 Clear CLR 49 42     77%     30.19 30.19      
Apr 21 00:53 Calm 10 Clear CLR 53 41     63%     30.19 30.19      
Apr 20 23:53 E 6 10 Clear CLR 52 43     71%     30.2 30.19      
Apr 20 22:53 ENE 5 10 Clear CLR 50 44     80% 48   30.2 30.2      
Apr 20 21:53 Calm 10 Clear CLR 55 41     59%     30.22 30.21      
Apr 20 20:53 NNE 3 10 Clear CLR 59 39     47%     30.21 30.21      
Apr 20 19:53 ENE 7 10 Clear CLR 61 37     41%     30.2 30.19      
Apr 20 18:53 ENE 13 10 Clear CLR 66 35     32%     30.2 30.2      
Apr 20 17:53 E 14 10 Clear CLR 67 35     31%     30.22 30.22      
Apr 20 16:53 E 10 10 Clear CLR 67 35     31%     30.25 30.24      
Apr 20 15:53 NE 11 10 Clear CLR 66 35     32%     30.27 30.26      
Apr 20 14:53 NE 10 10 Clear CLR 66 33     29%     30.31 30.3      
Apr 20 13:53 NE 11 10 Clear CLR 63 34     34%     30.33 30.33      
Apr 20 12:53 ENE 11 10 Clear CLR 61 34     36%     30.35 30.35      
Apr 20 11:53 ENE 13 10 Clear CLR 58 32     37%     30.38 30.38      
Apr 20 10:53 ENE 15 10 Clear CLR 56 34     43%     30.4 30.4      
Apr 20 09:53 E 16 10 Clear CLR 54 34     47%     30.4 30.4      
Apr 20 08:53 ENE 10 10 Clear CLR 49 36     61% 45   30.41 30.41      
Apr 20 07:53 NE 6 10 Clear CLR 46 36     68% 43   30.42 30.41      
Apr 20 06:53 NNE 5 10 Clear CLR 43 36     76% 40   30.39 30.38      
Apr 20 05:53 NE 8 10 Clear CLR 44 35     70% 40   30.36 30.36      
Apr 20 04:53 NE 9 10 Clear CLR 44 35     70% 39   30.36 30.35      
Apr 20 03:53 NE 9 10 Clear CLR 45 35     68% 40   30.37 30.36      
Apr 20 02:53 NE 8 10 Clear CLR 45 35     68% 41   30.36 30.36      
Apr 20 01:53 NE 8 10 Clear CLR 46 34     63% 42   30.36 30.35      
Apr 20 00:53 NE 7 10 Clear CLR 47 34     60% 44   30.36 30.36      
Jun 11 16:53 SSE 11 10 Clear CLR 88 68     52%   92 29.99 29.98      
Jun 09 06:05 Calm 4 Fog/Mist CLR 57 56     96%     29.95        
Jun 09 04:53 Calm 10 Clear CLR 58 57     97%     29.93 29.93      
Jun 08 23:53 Calm 10 Clear   62 58     86%     29.95 29.94      
Jun 08 22:53 Calm 10 Clear CLR 64 58     81%     29.95 29.94      
Jun 08 18:53 NE 7 10 Clear   76 56     50%   76 29.91 29.91      
Jun 08 15:53 N 11 10 Clear CLR 80 54     41%   80 29.95 29.94      
Jun 08 00:53 NNW 5 10 Clear CLR 64 58     81%     29.96 29.96      
Jun 06 12:53 NNE 11 10 Clear CLR 83 68     61%   86 29.81 29.8      
Jun 06 01:38 NNE 7 10 Mostly Cloudy BKN008 73 71     94%   74 29.78        
Notice The following observation data may not be complete
Jun 05 13:53 Calm 10 Cloudy OVC080   70      %     29.76 29.75